RADFXSAT (FOX-1B) (43017 NORAD) Tracking and Keplerian Element Data

This shows tracking and keplerian element data for the satellite.

Feedback or suggestion? Click here.




ElementValue
Catalog43017
NameRADFXSAT (FOX-1B)
Epoch Orbit7178
Epoch Day78.50450436
Epoch Year2019
RAAN3.4394
Inclination97.7221
Eccentricity0.0260115
Argument of Perigee95.3001
Mean Anonmoly267.7945
Mean Motion14.78419325
Decay Rate5.79E-06
L11 43017U 17073E 19078.50450436 .00000579 00000-0 50047-4 0 9996
L22 43017 97.7221 3.4394 0260115 95.3001 267.7945 14.78419325 71788

Live tracking and technical data element details for RADFXSAT (FOX-1B) (NORAD 43017). RADFXSAT (FOX-1B) can be tracked NOW for your location showing map with azimuth and elevation plus other details from your city location.

Track the satellite on the map from your city or location and see movement details for azimuth, elevation, latitude, longitude, range, height, and movement on the map or in text.







IsCatalogInMostPopularTable: catalog: 43017, numindb: 439
Update: records affected: 1



GetName: 43017 RADFXSAT (FOX-1B)

Hit Count: updated at: Thu, 21 Mar 2019 01:09:41 GMT